Weather
South African Flight Training AcademyBookingsEnt 1055(rendered 2016-09-28 07:03:52) Member: Guest [54.242.53.253- private]
Go back one day  Today  Go forward one day
00h00-24h00  00h00-12h00  12h00-24h00  05h00-22h00  08h00-18h00   Bookingsheet Key 

Sunrise: 05:59B

Full view Bookings for Wednesday, 28th September 2016

Sunset: 17:57B

 05h0006h0007h0008h0009h0010h0011h0012h0013h0014h0015h0016h0017h0018h0019h0020h0021h00

ZS-EVM

Piper 4 Seater Fixed Gear Fixed Pitch

ZS-FHF

Piper 4 Seater Fixed Gear Fixed Pitch

ZS-IHJ

Raytheon Private Aircraft

ZS-JBP

Cessna 4 Seater Fixed Gear/Pitch

ZS-JPH

Beechcraft Private Aircraft

ZS-JVH

Cessna 4 Seater Fixed Gear/Pitch

ZS-KXO

Cessna 4 Seater Trainer

ZS-KZE

Beechcraft Private Aircraft

ZS-MAE

Cessna 4 Seater Fixed Gear/Pitch

ZS-MPF

Cessna 4 Seater Fixed Gear/Pitch

ZS-NFS

Cessna 4 Seater Fixed Gear/Pitch

ZS-OFV

Cessna 4 Seater Fixed Gear/Pitch

ZS-OHU

Piper 4 Seater Fixed Gear Fixed Pitch

ZS-PNV

Cessna 2 Seater Trainer

ZS-PSL

Cessna 4 Seater Fixed Gear/Pitch

ZS-PZD

Cessna 2 Seater Trainer

ZS-PZF

CESSNA Cessna 182T - Private

ZS-RIO

CESSNA Cessna 182T - Private

ZS-SAA

Cessna 4 Seater Fixed Gear/Pitch

ZS-SAE

Cessna 4 Seater Fixed Gear/Pitch

ZS-SCP

Cessna 2 Seater Trainer

ZS-SSG

Cessna 2 Seater Trainer

ZS-SVC

Cessna 4 Seater Fixed Gear/Pitch

ZS-DWC

Cessna 2 Seater Trainer

FAOR METAR 280430Z 20012KT CAVOK 13/04 Q1023 NOSIG
FALA METAR 280500Z 19006KT 160V230 CAVOK 16/04 Q1023 NOSIG

GASSER ABDO

GROUND INSTRUCTOR

WASEEM BADROODIEN

INSTRUCTOR

ZAINAB BHABHA

INSTRUCTOR

WERNER BOTHA

INSTRUCTOR

VUMILE DLAMINI

INSTRUCTOR

JACO DREYER

INSTRUCTOR, CFI

JACQUES GALE

INSTRUCTOR

AVINASH LOTCHER

INSTRUCTOR

SIMBARASHE MAVHERA

INSTRUCTOR

TSHWANELO MOROOSELE

INSTRUCTOR

MLONDI MTHETHWA

INSTRUCTOR

XABISO NTLOKO

INSTRUCTOR

TAFADZWA NYAKUDYA

INSTRUCTOR

DANIEL VAN DER MERWE

INSTRUCTOR, CGI

NTULI ZELDAH

INSTRUCTOR

FAOR TAF 280400Z 2806/2912 19008KT CAVOK    FM280800 25015KT CAVOK    BECMG 2816/2818 17009KT    BECMG 2903/2905 09005KT    BECMG 2907/2909 33007KT    TX24/2813ZTN11/2903Z
FALA TAF 280400Z 2806/2906 17007KT CAVOK    FM280900 24012KT CAVOK    BECMG 2816/2818 17007KT    TX26/2813ZTN12/2903Z

Briefing1

Briefing room 1

 05h0006h0007h0008h0009h0010h0011h0012h0013h0014h0015h0016h0017h0018h0019h0020h0021h00

index.php last modified on Wed 13 Jun 2012 7:48 PM